User: anonymous   Login
Location: Caltech
(34.1382°N, 118.1253°W)
Time: 01:18:42
(UTC-07:00)
Language:

Cosmos 1975 - Orbit

View from above orbital plane
View from above orbital plane
View from above satellite
View from above satellite

Ground track
Ground track

The orbit data is extracted from the following two-line orbital elements,

1 19573U 88093A   16177.85613561  .00000333  00000-0  22084-4 0  9999
2 19573  82.5206 330.1112 0015985  74.1893 286.1094 15.03741815506254
Epoch (UTC): 25 June 2016 20:32:50
Eccentricity: 0.0015985
inclination: 82.5206°
perigee height: 544 km
apogee height: 566 km
right ascension of ascending node: 330.1112°
argument of perigee: 74.1893°
revolutions per day: 15.03741815
mean anomaly at epoch: 286.1094°
orbit number at epoch: 50625

The dashed part of the orbit path shows where the satellite is in the earth's shadow,  

DLR